Hourly Data Report for September 30, 2017

All times are specified in Local Standard Time (LST). Add 1 hour to adjust for Daylight Saving Time where and when it is observed.

KITCHENER/WATERLOO
ONTARIO

43°27'39.000" N
80°22'43.000" W
321.60 m
6144239
71368
YKF

Download Data

Hourly Data (September 2017)
Hourly Data Report for September 30, 2017
Temp Definition
°C
Dew Point Temp Definition
°C
Rel Hum Definition
%
Wind Dir Definition
10's deg

Wind Spd Definition
km/h
Visibility Definition
km
Stn Press Definition
kPa
Hmdx Definition


Wind Chill Definition


Weather Definition


TIME
00:00 Legend Double Dagger 6.9 5.1 88 33 15 16.1 98.50     LegendNANA
01:00 Legend Double Dagger 6.2 4.7 90 36 8 16.1 98.56     LegendNANA
02:00 Legend Double Dagger 6.1 4.9 92 34 5 16.1 98.62     LegendNANA
03:00 Legend Double Dagger 7.7 5.9 88 1 11 16.1 98.69     LegendNANA
04:00 Legend Double Dagger 7.1 4.7 85 35 11 16.1 98.74     LegendNANA
05:00 Legend Double Dagger 5.5 3.7 88 33 11 16.1 98.84     LegendNANA
06:00 Legend Double Dagger 4.7 3.3 90 33 11 16.1 98.91     LegendNANA
07:00 Legend Double Dagger 5.1 3.4 89 32 9 16.1 98.97     LegendNANA
08:00 Legend Double Dagger 7.4 4.0 79 35 11 16.1 99.02     LegendNANA
09:00 Legend Double Dagger 9.5 3.1 64 36 22 16.1 99.07     LegendNANA
10:00 Legend Double Dagger 10.7 3.4 61 35 22 16.1 99.12     LegendNANA
11:00 Legend Double Dagger 11.5 2.9 55 2 17 16.1 99.17     LegendNANA
12:00 Legend Double Dagger 12.6 3.4 53 31 11 16.1 99.17     LegendNANA
13:00 Legend Double Dagger 12.7 3.6 54 32 17 16.1 99.14     LegendNANA
14:00 Legend Double Dagger 14.0 3.0 47 2 17 16.1 99.06     LegendNANA
15:00 Legend Double Dagger 14.1 2.9 47 LegendMM 5 16.1 99.02     LegendNANA
16:00 Legend Double Dagger 14.4 3.1 46 29 9 16.1 99.01     LegendNANA
17:00 Legend Double Dagger 13.7 2.0 45 LegendMM 4 16.1 99.00     LegendNANA
18:00 Legend Double Dagger 10.8 4.2 64 33 5 16.1 99.02     LegendNANA
19:00 Legend Double Dagger 9.2 4.6 73 33 5 16.1 99.06     LegendNANA
20:00 Legend Double Dagger 5.3 3.8 90   0 16.1 99.09     LegendNANA
21:00 Legend Double Dagger 4.3 3.2 93 4 5 16.1 99.11     LegendNANA
22:00 Legend Double Dagger 4.8 2.4 84 7 4 16.1 99.14     LegendNANA
23:00 Legend Double Dagger 3.2 2.5 95   0 16.1 99.13     LegendNANA

Notes on Data Quality.

Legend

  • E = Estimated
  • M = Missing
  • NA = Not Available
  • ‡ = Partner data that is not subject to review by the National Climate Archives
Date modified: